TOM2MJ EGNT-LGZA

Flight info

Callsign TOM2MJ
Flight time 3h 17m
Altitude 37000
Route GIRLI DCT IDKOL DCT HALIF DCT NALAX DCT EMLON DCT MONIL DCT LUNIX DCT BAMSU DCT ABUMO DCT BURAM DCT NANIT DCT VEKEN DCT PEMUD DCT SIPAL DCT TEPKO DCT VEMAT DCT ASTUS
Aircraft B738/M-SDE2E3FGHIRWXY/LB1

Departure

Time 2026-05-08 09:45
Airport Newcastle International Airport (EGNT)

Arrival

Time 2026-05-08 13:02
Airport Zakynthos International Airport Dionysios Solomos (LGZA)
Time Latitude Longitude Altitude Speed Heading
2026-05-08 09:30 55.03657 -1.70712 259 ft 0 kts
2026-05-08 09:32 55.03656 -1.70712 259 ft 2 kts
2026-05-08 09:33 55.03636 -1.70715 260 ft 3 kts
2026-05-08 09:33 55.03619 -1.70717 261 ft 3 kts 13°
2026-05-08 09:33 55.03603 -1.70729 261 ft 3 kts 53°
2026-05-08 09:33 55.03596 -1.70757 261 ft 3 kts 92°
2026-05-08 09:34 55.03597 -1.70783 261 ft 0 kts 94°
2026-05-08 09:37 55.03594 -1.70724 261 ft 9 kts 94°
2026-05-08 09:37 55.03592 -1.70608 261 ft 10 kts 90°
2026-05-08 09:38 55.03601 -1.70495 260 ft 9 kts 67°
2026-05-08 09:38 55.03656 -1.70439 259 ft 10 kts
2026-05-08 09:38 55.03732 -1.70431 256 ft 12 kts
2026-05-08 09:38 55.03781 -1.70332 254 ft 12 kts 92°
2026-05-08 09:39 55.03775 -1.70185 255 ft 12 kts 93°
2026-05-08 09:39 55.03773 -1.70042 256 ft 12 kts 90°
2026-05-08 09:39 55.03779 -1.69905 257 ft 11 kts 84°
2026-05-08 09:39 55.03792 -1.69769 257 ft 11 kts 78°
2026-05-08 09:40 55.03812 -1.69622 255 ft 14 kts 74°
2026-05-08 09:40 55.03848 -1.69460 254 ft 14 kts 64°
2026-05-08 09:40 55.03888 -1.69308 253 ft 13 kts 65°
2026-05-08 09:40 55.03927 -1.69163 252 ft 13 kts 65°
2026-05-08 09:41 55.03964 -1.69023 250 ft 13 kts 64°
2026-05-08 09:41 55.04000 -1.68886 249 ft 12 kts 65°
2026-05-08 09:41 55.04036 -1.68753 248 ft 12 kts 65°
2026-05-08 09:41 55.04070 -1.68622 246 ft 12 kts 65°
2026-05-08 09:42 55.04107 -1.68485 245 ft 14 kts 65°
2026-05-08 09:42 55.04147 -1.68334 243 ft 14 kts 65°
2026-05-08 09:42 55.04187 -1.68186 242 ft 13 kts 65°
2026-05-08 09:42 55.04224 -1.68043 240 ft 13 kts 65°
2026-05-08 09:43 55.04261 -1.67904 239 ft 12 kts 65°
2026-05-08 09:43 55.04297 -1.67769 237 ft 12 kts 65°
2026-05-08 09:43 55.04331 -1.67636 237 ft 12 kts 72°
2026-05-08 09:43 55.04330 -1.67495 235 ft 12 kts 94°
2026-05-08 09:44 55.04296 -1.67381 237 ft 11 kts 153°
2026-05-08 09:44 55.04223 -1.67385 239 ft 11 kts 220°
2026-05-08 09:44 55.04201 -1.67441 236 ft 0 kts 245°
2026-05-08 09:44 55.04199 -1.67451 236 ft 4 kts 245°
2026-05-08 09:45 55.04132 -1.67701 238 ft 56 kts 245°
2026-05-08 09:45 55.03871 -1.68686 248 ft 121 kts 245°
2026-05-08 09:45 55.03436 -1.70308 313 ft 170 kts 245°
2026-05-08 09:45 55.02911 -1.72256 942 ft 181 kts 243°
2026-05-08 09:46 55.02357 -1.74297 1592 ft 192 kts 243°
2026-05-08 09:46 55.01679 -1.76244 2536 ft 185 kts 226°
2026-05-08 09:46 55.00599 -1.77448 3300 ft 190 kts 200°
2026-05-08 09:46 54.99319 -1.78115 3973 ft 192 kts 198°
2026-05-08 09:47 54.98011 -1.78761 4623 ft 198 kts 197°
2026-05-08 09:47 54.96618 -1.79477 4915 ft 221 kts 200°
2026-05-08 09:47 54.95105 -1.80391 5289 ft 243 kts 201°
2026-05-08 09:47 54.93455 -1.81410 5906 ft 255 kts 201°
2026-05-08 09:48 54.91787 -1.82440 6849 ft 255 kts 201°
2026-05-08 09:48 54.90104 -1.83476 7701 ft 259 kts 201°
2026-05-08 09:48 54.88967 -1.84175 8255 ft 262 kts 201°
2026-05-08 09:48 54.86673 -1.85580 9418 ft 265 kts 201°
2026-05-08 09:49 54.84917 -1.86654 10235 ft 270 kts 201°
2026-05-08 09:49 54.83715 -1.87389 10753 ft 272 kts 200°
2026-05-08 09:49 54.81888 -1.88120 11489 ft 279 kts 181°
2026-05-08 09:49 54.79926 -1.87535 11922 ft 300 kts 162°
2026-05-08 09:50 54.77937 -1.85973 12134 ft 325 kts 157°
2026-05-08 09:50 54.75826 -1.84190 12320 ft 348 kts 157°
2026-05-08 09:50 54.73583 -1.82334 12552 ft 367 kts 157°
2026-05-08 09:50 54.71158 -1.80848 13054 ft 373 kts 174°
2026-05-08 09:51 54.68576 -1.80938 13816 ft 372 kts 189°
2026-05-08 09:51 54.66022 -1.81703 14505 ft 374 kts 192°
2026-05-08 09:51 54.63447 -1.82562 15154 ft 377 kts 192°
2026-05-08 09:51 54.60894 -1.83429 15801 ft 380 kts 192°
2026-05-08 09:52 54.58259 -1.84311 16479 ft 383 kts 192°
2026-05-08 09:52 54.55628 -1.85173 17106 ft 386 kts 192°
2026-05-08 09:52 54.53006 -1.86019 17734 ft 389 kts 192°
2026-05-08 09:52 54.50333 -1.86870 18360 ft 392 kts 192°
2026-05-08 09:53 54.47633 -1.87723 18859 ft 395 kts 192°
2026-05-08 09:53 54.44913 -1.88578 19321 ft 400 kts 192°
2026-05-08 09:53 54.42168 -1.89439 19822 ft 402 kts 192°
2026-05-08 09:53 54.39407 -1.90304 20315 ft 405 kts 192°
2026-05-08 09:54 54.36624 -1.91174 20788 ft 408 kts 192°
2026-05-08 09:54 54.33819 -1.92050 21242 ft 410 kts 192°
2026-05-08 09:54 54.31002 -1.92930 21690 ft 413 kts 192°
2026-05-08 09:54 54.28163 -1.93814 22102 ft 416 kts 192°
2026-05-08 09:55 54.25304 -1.94704 22518 ft 419 kts 192°
2026-05-08 09:55 54.22427 -1.95598 22906 ft 421 kts 192°
2026-05-08 09:55 54.19527 -1.96498 23246 ft 425 kts 192°
2026-05-08 09:55 54.16612 -1.97402 23619 ft 427 kts 192°
2026-05-08 09:56 54.13709 -1.98284 23938 ft 429 kts 190°
2026-05-08 09:56 54.10705 -1.98395 24212 ft 437 kts 175°
2026-05-08 09:56 54.07741 -1.97138 24507 ft 440 kts 162°
2026-05-08 09:56 54.05017 -1.94776 24525 ft 441 kts 149°
2026-05-08 09:57 54.00003 -1.88871 24551 ft 435 kts 148°
2026-05-08 09:57 53.97554 -1.85935 24564 ft 432 kts 148°
2026-05-08 09:57 53.95097 -1.83023 24563 ft 430 kts 148°
2026-05-08 09:58 53.92637 -1.80145 24565 ft 427 kts 148°
2026-05-08 09:58 53.90192 -1.77313 24558 ft 425 kts 149°
2026-05-08 09:58 53.87754 -1.74502 24563 ft 422 kts 148°
2026-05-08 09:58 53.85330 -1.71711 24567 ft 420 kts 149°
2026-05-08 09:59 53.82917 -1.68928 24564 ft 419 kts 149°
2026-05-08 09:59 53.80506 -1.66155 24562 ft 417 kts 149°
2026-05-08 09:59 53.78110 -1.63415 24565 ft 415 kts 149°
2026-05-08 09:59 53.75760 -1.60559 24554 ft 417 kts 141°
2026-05-08 10:00 53.73885 -1.56813 24556 ft 421 kts 124°
2026-05-08 10:00 53.72721 -1.52401 24523 ft 412 kts 107°
2026-05-08 10:00 53.72145 -1.47612 24593 ft 421 kts 102°
2026-05-08 10:00 53.71597 -1.42675 24667 ft 433 kts 102°
2026-05-08 10:01 53.71020 -1.37612 24746 ft 445 kts 102°
2026-05-08 10:01 53.70415 -1.32420 24816 ft 456 kts 103°
2026-05-08 10:01 53.69784 -1.27109 24908 ft 465 kts 103°
2026-05-08 10:01 53.69136 -1.21718 25166 ft 470 kts 103°
2026-05-08 10:02 53.68480 -1.16312 25541 ft 471 kts 103°
2026-05-08 10:02 53.67819 -1.10900 25906 ft 473 kts 103°
2026-05-08 10:02 53.67152 -1.05456 26218 ft 475 kts 103°
2026-05-08 10:02 53.66479 -0.99993 26540 ft 477 kts 102°
2026-05-08 10:03 53.65799 -0.94488 26876 ft 479 kts 102°
2026-05-08 10:03 53.65115 -0.88980 27184 ft 482 kts 102°
2026-05-08 10:03 53.64424 -0.83442 27511 ft 484 kts 102°
2026-05-08 10:03 53.63725 -0.77870 27867 ft 486 kts 102°
2026-05-08 10:04 53.63026 -0.72310 28319 ft 484 kts 102°
2026-05-08 10:04 53.62336 -0.66840 28793 ft 483 kts 102°
2026-05-08 10:04 53.61637 -0.61310 29265 ft 481 kts 102°
2026-05-08 10:04 53.60937 -0.55806 29679 ft 481 kts 102°
2026-05-08 10:05 53.60234 -0.50291 30070 ft 481 kts 102°
2026-05-08 10:05 53.59529 -0.44779 30431 ft 481 kts 101°
2026-05-08 10:05 53.58822 -0.39281 30743 ft 481 kts 102°
2026-05-08 10:05 53.58112 -0.33777 31019 ft 482 kts 102°
2026-05-08 10:06 53.57396 -0.28255 31308 ft 483 kts 102°
2026-05-08 10:06 53.56679 -0.22739 31615 ft 483 kts 102°
2026-05-08 10:06 53.55960 -0.17232 31910 ft 483 kts 102°
2026-05-08 10:06 53.55235 -0.11700 32187 ft 484 kts 102°
2026-05-08 10:07 53.54509 -0.06180 32464 ft 484 kts 102°
2026-05-08 10:07 53.53778 -0.00646 32757 ft 484 kts 102°
2026-05-08 10:07 53.53076 0.04646 33214 ft 479 kts 102°
2026-05-08 10:07 53.52350 0.10105 33583 ft 478 kts 102°
2026-05-08 10:08 53.51619 0.15576 33774 ft 480 kts 102°
2026-05-08 10:08 53.50885 0.21054 33964 ft 482 kts 102°
2026-05-08 10:08 53.50145 0.26556 34224 ft 482 kts 102°
2026-05-08 10:08 53.49406 0.32041 34504 ft 480 kts 102°
2026-05-08 10:09 53.48667 0.37498 34784 ft 479 kts 103°
2026-05-08 10:09 53.47932 0.42961 35008 ft 479 kts 102°
2026-05-08 10:09 53.47247 0.48358 35213 ft 479 kts 102°
2026-05-08 10:09 53.46574 0.53831 35468 ft 478 kts 102°
2026-05-08 10:10 53.45911 0.59283 35845 ft 474 kts 102°
2026-05-08 10:10 53.45251 0.64694 36108 ft 473 kts 102°
2026-05-08 10:10 53.44584 0.70105 36288 ft 474 kts 102°
2026-05-08 10:10 53.43909 0.75531 36436 ft 475 kts 102°
2026-05-08 10:11 53.43228 0.80962 36584 ft 476 kts 102°
2026-05-08 10:11 53.42543 0.86390 36811 ft 475 kts 103°
2026-05-08 10:11 53.41855 0.91809 37034 ft 475 kts 103°
2026-05-08 10:11 53.41164 0.97225 37139 ft 477 kts 103°
2026-05-08 10:12 53.39791 1.07934 37152 ft 483 kts 103°
2026-05-08 10:12 53.38361 1.19009 37154 ft 488 kts 103°
2026-05-08 10:13 53.36909 1.30171 37152 ft 492 kts 103°
2026-05-08 10:13 53.35445 1.41339 37126 ft 485 kts 103°
2026-05-08 10:14 53.34726 1.46800 37133 ft 474 kts 103°
2026-05-08 10:14 53.34018 1.52160 37148 ft 471 kts 103°
2026-05-08 10:14 53.32585 1.62910 37157 ft 475 kts 104°
2026-05-08 10:15 53.31142 1.73664 37155 ft 478 kts 104°
2026-05-08 10:15 53.29674 1.84529 37153 ft 480 kts 104°
2026-05-08 10:16 53.28191 1.95425 37143 ft 480 kts 104°
2026-05-08 10:16 53.26724 2.06126 37140 ft 479 kts 104°
2026-05-08 10:17 53.25227 2.16967 37142 ft 478 kts 104°
2026-05-08 10:17 53.23736 2.27692 37138 ft 477 kts 104°
2026-05-08 10:18 53.22228 2.38463 37133 ft 475 kts 104°
2026-05-08 10:18 53.20606 2.49130 37131 ft 473 kts 111°
2026-05-08 10:19 53.17664 2.58833 37161 ft 468 kts 122°
2026-05-08 10:20 53.12650 2.72787 37143 ft 467 kts 122°
2026-05-08 10:20 53.09364 2.82040 37147 ft 467 kts 122°
2026-05-08 10:21 53.06076 2.91343 37144 ft 466 kts 122°
2026-05-08 10:21 53.02837 3.00493 37144 ft 466 kts 122°
2026-05-08 10:22 52.99541 3.09763 37139 ft 467 kts 122°
2026-05-08 10:22 52.96228 3.19042 37115 ft 467 kts 122°
2026-05-08 10:23 52.92904 3.28315 37144 ft 468 kts 122°
2026-05-08 10:23 52.89568 3.37591 37137 ft 469 kts 123°
2026-05-08 10:24 52.86220 3.46864 37149 ft 469 kts 123°
2026-05-08 10:24 52.82884 3.56072 37138 ft 470 kts 123°
2026-05-08 10:25 52.79507 3.65361 37145 ft 471 kts 123°
2026-05-08 10:25 52.76124 3.74631 37146 ft 471 kts 123°
2026-05-08 10:26 52.72817 3.84001 37157 ft 472 kts 121°
2026-05-08 10:26 52.69594 3.93369 37144 ft 472 kts 121°
2026-05-08 10:27 52.66395 4.02616 37137 ft 472 kts 122°
2026-05-08 10:27 52.63123 4.11990 37143 ft 472 kts 122°
2026-05-08 10:28 52.59841 4.21338 37135 ft 471 kts 122°
2026-05-08 10:28 52.56553 4.30665 37136 ft 471 kts 122°
2026-05-08 10:29 52.53256 4.39984 37130 ft 471 kts 122°
2026-05-08 10:29 52.49958 4.49273 37130 ft 470 kts 122°
2026-05-08 10:30 52.46659 4.58532 37122 ft 470 kts 122°
2026-05-08 10:30 52.43347 4.67792 37127 ft 470 kts 122°
2026-05-08 10:31 52.40049 4.76979 37134 ft 470 kts 122°
2026-05-08 10:31 52.36727 4.86199 37128 ft 470 kts 122°
2026-05-08 10:32 52.33403 4.95391 37128 ft 469 kts 122°
2026-05-08 10:32 52.30136 5.04393 37123 ft 469 kts 122°
2026-05-08 10:33 52.26797 5.13560 37125 ft 469 kts 123°
2026-05-08 10:33 52.23449 5.22719 37128 ft 469 kts 123°
2026-05-08 10:34 52.20116 5.31804 37125 ft 470 kts 123°
2026-05-08 10:34 52.16750 5.40950 37126 ft 470 kts 123°
2026-05-08 10:35 52.13379 5.50080 37120 ft 471 kts 123°
2026-05-08 10:35 52.09862 5.59048 37121 ft 469 kts 130°
2026-05-08 10:36 52.06420 5.65842 37129 ft 468 kts 133°
2026-05-08 10:36 52.02178 5.73871 37128 ft 468 kts 133°
2026-05-08 10:37 51.97959 5.81931 37114 ft 469 kts 132°
2026-05-08 10:37 51.93759 5.90036 37126 ft 469 kts 132°
2026-05-08 10:38 51.89565 5.98143 37116 ft 469 kts 132°
2026-05-08 10:38 51.85459 6.06056 37131 ft 469 kts 132°
2026-05-08 10:39 51.81256 6.14125 37124 ft 469 kts 132°
2026-05-08 10:39 51.77044 6.22183 37126 ft 469 kts 133°
2026-05-08 10:40 51.72831 6.30217 37127 ft 469 kts 133°
2026-05-08 10:40 51.68619 6.38225 37126 ft 468 kts 133°
2026-05-08 10:41 51.64394 6.46231 37128 ft 468 kts 133°
2026-05-08 10:41 51.60167 6.54217 37120 ft 468 kts 133°
2026-05-08 10:42 51.55942 6.62174 37121 ft 468 kts 133°
2026-05-08 10:42 51.51738 6.70067 37121 ft 468 kts 133°
2026-05-08 10:43 51.47502 6.77995 37111 ft 468 kts 133°
2026-05-08 10:43 51.43255 6.85919 37120 ft 468 kts 133°
2026-05-08 10:44 51.38997 6.93839 37123 ft 468 kts 133°
2026-05-08 10:44 51.34823 7.01579 37108 ft 469 kts 133°
2026-05-08 10:45 51.30578 7.09427 37126 ft 469 kts 133°
2026-05-08 10:45 51.26280 7.17349 37113 ft 469 kts 134°
2026-05-08 10:46 51.22030 7.25162 37119 ft 469 kts 134°
2026-05-08 10:46 51.17673 7.32998 37121 ft 468 kts 136°
2026-05-08 10:47 51.13114 7.40305 37121 ft 468 kts 138°
2026-05-08 10:47 51.08456 7.47552 37115 ft 468 kts 138°
2026-05-08 10:48 51.03808 7.54822 37117 ft 468 kts 138°
2026-05-08 10:48 50.99189 7.62084 37112 ft 468 kts 138°
2026-05-08 10:49 50.94565 7.69352 37117 ft 468 kts 138°
2026-05-08 10:49 50.89958 7.76572 37116 ft 468 kts 138°
2026-05-08 10:50 50.85318 7.83820 37113 ft 468 kts 138°
2026-05-08 10:50 50.80672 7.91054 37108 ft 468 kts 138°
2026-05-08 10:51 50.76026 7.98267 37092 ft 468 kts 138°
2026-05-08 10:51 50.71461 8.05335 37100 ft 468 kts 138°
2026-05-08 10:52 50.66798 8.12532 37104 ft 468 kts 139°
2026-05-08 10:52 50.62137 8.19705 37123 ft 468 kts 139°
2026-05-08 10:53 50.57503 8.26816 37128 ft 468 kts 139°
2026-05-08 10:53 50.52841 8.33949 37133 ft 468 kts 139°
2026-05-08 10:54 50.48166 8.41083 37123 ft 468 kts 139°
2026-05-08 10:54 50.43491 8.48194 37131 ft 468 kts 139°
2026-05-08 10:55 50.38808 8.55298 37132 ft 469 kts 139°
2026-05-08 10:55 50.34103 8.62414 37129 ft 469 kts 139°
2026-05-08 10:56 50.29403 8.69502 37115 ft 469 kts 139°
2026-05-08 10:56 50.24692 8.76588 37123 ft 469 kts 139°
2026-05-08 10:57 50.20011 8.83608 37121 ft 469 kts 139°
2026-05-08 10:57 50.12927 8.94186 37122 ft 469 kts 139°
2026-05-08 10:58 50.08247 9.01013 37121 ft 469 kts 140°
2026-05-08 10:58 50.03469 9.07923 37117 ft 469 kts 140°
2026-05-08 10:59 49.98696 9.14821 37106 ft 469 kts 140°
2026-05-08 10:59 49.93912 9.21728 37113 ft 469 kts 140°
2026-05-08 11:00 49.89128 9.28623 37115 ft 469 kts 140°
2026-05-08 11:00 49.84372 9.35454 37112 ft 469 kts 140°
2026-05-08 11:01 49.79578 9.42321 37103 ft 469 kts 140°
2026-05-08 11:01 49.74784 9.49169 37109 ft 468 kts 140°
2026-05-08 11:02 49.67601 9.59394 37109 ft 468 kts 140°
2026-05-08 11:03 49.62800 9.66204 37115 ft 468 kts 140°
2026-05-08 11:03 49.58001 9.72991 37119 ft 468 kts 140°
2026-05-08 11:04 49.53187 9.79781 37118 ft 468 kts 140°
2026-05-08 11:04 49.48375 9.86550 37127 ft 468 kts 140°
2026-05-08 11:05 49.43596 9.93254 37123 ft 468 kts 140°
2026-05-08 11:05 49.38777 9.99995 37129 ft 467 kts 140°
2026-05-08 11:06 49.34053 10.06585 37130 ft 467 kts 140°
2026-05-08 11:06 49.29245 10.13273 37143 ft 467 kts 140°
2026-05-08 11:07 49.24429 10.19955 37121 ft 467 kts 140°
2026-05-08 11:07 49.19645 10.26574 37119 ft 466 kts 141°
2026-05-08 11:08 49.14821 10.33230 37141 ft 466 kts 141°
2026-05-08 11:08 49.10003 10.39860 37148 ft 466 kts 141°
2026-05-08 11:09 49.05201 10.46450 37140 ft 466 kts 141°
2026-05-08 11:09 49.00383 10.53044 37142 ft 465 kts 141°
2026-05-08 11:10 48.95564 10.59622 37146 ft 466 kts 141°
2026-05-08 11:10 48.90733 10.66197 37143 ft 467 kts 141°
2026-05-08 11:11 48.85867 10.72803 37130 ft 468 kts 141°
2026-05-08 11:11 48.81008 10.79383 37116 ft 468 kts 141°
2026-05-08 11:12 48.76183 10.85901 37107 ft 467 kts 141°
2026-05-08 11:12 48.71329 10.92439 37101 ft 467 kts 141°
2026-05-08 11:13 48.66329 10.98673 37108 ft 463 kts 147°
2026-05-08 11:13 48.61188 11.04272 37104 ft 463 kts 148°
2026-05-08 11:14 48.55944 11.09909 37114 ft 463 kts 148°
2026-05-08 11:14 48.50699 11.15615 37099 ft 464 kts 148°
2026-05-08 11:15 48.45470 11.21339 37093 ft 465 kts 148°
2026-05-08 11:15 48.40234 11.27067 37071 ft 464 kts 148°
2026-05-08 11:16 48.35044 11.32731 37080 ft 463 kts 148°
2026-05-08 11:16 48.29827 11.38406 37081 ft 463 kts 148°
2026-05-08 11:17 48.24604 11.44071 37078 ft 462 kts 148°
2026-05-08 11:17 48.19384 11.49718 37080 ft 462 kts 148°
2026-05-08 11:18 48.14162 11.55353 37076 ft 462 kts 148°
2026-05-08 11:18 48.08946 11.60968 37076 ft 462 kts 149°
2026-05-08 11:19 48.03765 11.66531 37066 ft 461 kts 149°
2026-05-08 11:19 47.98556 11.72110 37065 ft 461 kts 149°
2026-05-08 11:20 47.93336 11.77686 37069 ft 461 kts 149°
2026-05-08 11:20 47.89000 11.82307 37066 ft 460 kts 149°
2026-05-08 11:21 47.84836 11.86735 37062 ft 460 kts 149°
2026-05-08 11:21 47.79619 11.92272 37060 ft 460 kts 149°
2026-05-08 11:22 47.74394 11.97803 37061 ft 460 kts 149°
2026-05-08 11:22 47.69259 12.03224 37061 ft 460 kts 149°
2026-05-08 11:23 47.64056 12.08704 37060 ft 460 kts 150°
2026-05-08 11:23 47.58829 12.14195 37052 ft 461 kts 150°
2026-05-08 11:24 47.53594 12.19684 37041 ft 461 kts 150°
2026-05-08 11:24 47.48363 12.25154 37047 ft 460 kts 150°
2026-05-08 11:25 47.43129 12.30614 37043 ft 459 kts 150°
2026-05-08 11:25 47.37942 12.36140 37043 ft 461 kts 146°
2026-05-08 11:26 47.33076 12.42244 37043 ft 462 kts 143°
2026-05-08 11:26 47.28248 12.48522 37044 ft 462 kts 144°
2026-05-08 11:27 47.23394 12.54743 37045 ft 460 kts 144°
2026-05-08 11:27 47.18575 12.60836 37050 ft 459 kts 144°
2026-05-08 11:28 47.13713 12.66947 37072 ft 460 kts 144°
2026-05-08 11:28 47.08840 12.73053 37048 ft 461 kts 144°
2026-05-08 11:29 47.03949 12.79171 37046 ft 462 kts 144°
2026-05-08 11:29 46.99064 12.85271 37049 ft 461 kts 144°
2026-05-08 11:30 46.94183 12.91349 37065 ft 461 kts 144°
2026-05-08 11:30 46.89286 12.97431 37055 ft 461 kts 144°
2026-05-08 11:31 46.84472 13.03396 37041 ft 461 kts 144°
2026-05-08 11:31 46.79606 13.09411 37055 ft 461 kts 144°
2026-05-08 11:32 46.74706 13.15453 37053 ft 461 kts 145°
2026-05-08 11:32 46.69803 13.21484 37051 ft 460 kts 145°
2026-05-08 11:33 46.64914 13.27483 37057 ft 460 kts 145°
2026-05-08 11:33 46.60022 13.33473 37040 ft 459 kts 145°
2026-05-08 11:34 46.55128 13.39428 37042 ft 458 kts 146°
2026-05-08 11:34 46.50124 13.45126 37047 ft 457 kts 147°
2026-05-08 11:35 46.45111 13.50692 37073 ft 457 kts 147°
2026-05-08 11:35 46.40061 13.56322 37069 ft 457 kts 147°
2026-05-08 11:36 46.35028 13.61958 37047 ft 458 kts 147°
2026-05-08 11:36 46.29986 13.67604 37067 ft 458 kts 147°
2026-05-08 11:37 46.24946 13.73235 37084 ft 458 kts 147°
2026-05-08 11:37 46.19881 13.78878 37063 ft 459 kts 147°
2026-05-08 11:38 46.14811 13.84515 37067 ft 460 kts 147°
2026-05-08 11:38 46.09739 13.90138 37063 ft 460 kts 147°
2026-05-08 11:39 46.04700 13.95711 37059 ft 459 kts 147°
2026-05-08 11:39 45.99759 14.01164 37051 ft 458 kts 147°
2026-05-08 11:40 45.94703 14.06731 37061 ft 457 kts 148°
2026-05-08 11:40 45.89653 14.12279 37071 ft 456 kts 148°
2026-05-08 11:41 45.84610 14.17803 37060 ft 456 kts 148°
2026-05-08 11:41 45.79571 14.23313 37058 ft 455 kts 148°
2026-05-08 11:42 45.74568 14.28770 37059 ft 454 kts 148°
2026-05-08 11:42 45.69532 14.34249 37055 ft 454 kts 148°
2026-05-08 11:43 45.64502 14.39710 37047 ft 454 kts 148°
2026-05-08 11:43 45.59471 14.45160 37059 ft 453 kts 148°
2026-05-08 11:44 45.54442 14.50594 37056 ft 453 kts 148°
2026-05-08 11:44 45.49436 14.55991 37042 ft 453 kts 148°
2026-05-08 11:45 45.44405 14.61403 37054 ft 453 kts 148°
2026-05-08 11:45 45.39369 14.66808 37049 ft 453 kts 148°
2026-05-08 11:46 45.34325 14.72209 37046 ft 454 kts 148°
2026-05-08 11:46 45.29268 14.77612 37057 ft 455 kts 148°
2026-05-08 11:47 45.24198 14.83017 37043 ft 455 kts 148°
2026-05-08 11:47 45.19122 14.88417 37043 ft 455 kts 148°
2026-05-08 11:48 45.14066 14.93783 37065 ft 453 kts 148°
2026-05-08 11:48 45.09055 14.99091 37069 ft 453 kts 148°
2026-05-08 11:49 45.04098 15.04331 37057 ft 453 kts 148°
2026-05-08 11:49 44.99136 15.09774 37062 ft 453 kts 147°
2026-05-08 11:50 44.94182 15.15308 37069 ft 454 kts 146°
2026-05-08 11:50 44.89217 15.20830 37075 ft 454 kts 146°
2026-05-08 11:51 44.84242 15.26329 37058 ft 455 kts 147°
2026-05-08 11:51 44.79275 15.31798 37054 ft 456 kts 147°
2026-05-08 11:52 44.74265 15.37300 37057 ft 456 kts 147°
2026-05-08 11:52 44.69251 15.42794 37055 ft 457 kts 146°
2026-05-08 11:53 44.64231 15.48284 37062 ft 458 kts 146°
2026-05-08 11:53 44.59202 15.53770 37053 ft 458 kts 146°
2026-05-08 11:54 44.54159 15.59260 37051 ft 459 kts 147°
2026-05-08 11:54 44.49121 15.64732 37035 ft 458 kts 146°
2026-05-08 11:55 44.44104 15.70169 37048 ft 458 kts 147°
2026-05-08 11:55 44.39054 15.75628 37053 ft 458 kts 147°
2026-05-08 11:56 44.34000 15.81081 37044 ft 458 kts 147°
2026-05-08 11:56 44.28948 15.86520 37033 ft 457 kts 147°
2026-05-08 11:57 44.23904 15.91937 37047 ft 458 kts 146°
2026-05-08 11:57 44.18894 15.97306 37039 ft 457 kts 146°
2026-05-08 11:58 44.13961 16.02581 37031 ft 457 kts 147°
2026-05-08 11:58 44.08901 16.07979 37028 ft 457 kts 147°
2026-05-08 11:59 44.01360 16.16003 37024 ft 457 kts 146°
2026-05-08 11:59 43.96333 16.21337 37022 ft 457 kts 146°
2026-05-08 12:00 43.91271 16.26696 37028 ft 456 kts 146°
2026-05-08 12:00 43.86226 16.32027 37037 ft 456 kts 147°
2026-05-08 12:01 43.81180 16.37347 37033 ft 456 kts 147°
2026-05-08 12:01 43.76161 16.42625 37021 ft 456 kts 146°
2026-05-08 12:02 43.71106 16.47931 37020 ft 457 kts 147°
2026-05-08 12:02 43.66034 16.53243 37018 ft 457 kts 147°
2026-05-08 12:03 43.60964 16.58543 37019 ft 456 kts 147°
2026-05-08 12:03 43.55895 16.63829 37029 ft 457 kts 147°
2026-05-08 12:04 43.50815 16.69114 37024 ft 457 kts 147°
2026-05-08 12:04 43.45749 16.74375 37038 ft 455 kts 147°
2026-05-08 12:05 43.40678 16.79629 37035 ft 456 kts 147°
2026-05-08 12:05 43.35600 16.84879 37021 ft 457 kts 147°
2026-05-08 12:06 43.30529 16.90110 37022 ft 459 kts 147°
2026-05-08 12:06 43.25423 16.95368 37037 ft 459 kts 147°
2026-05-08 12:07 43.20396 17.00534 37034 ft 458 kts 147°
2026-05-08 12:07 43.15286 17.05774 37025 ft 458 kts 147°
2026-05-08 12:08 43.11039 17.10089 37028 ft 457 kts 147°
2026-05-08 12:08 43.05889 17.15204 37041 ft 457 kts 148°
2026-05-08 12:09 43.00730 17.20305 37049 ft 457 kts 148°
2026-05-08 12:09 42.95580 17.25398 37042 ft 458 kts 148°
2026-05-08 12:10 42.90420 17.30500 37041 ft 458 kts 148°
2026-05-08 12:10 42.85254 17.35600 37050 ft 458 kts 147°
2026-05-08 12:11 42.80074 17.40703 37037 ft 459 kts 148°
2026-05-08 12:11 42.74890 17.45798 37047 ft 460 kts 148°
2026-05-08 12:12 42.69723 17.50865 37053 ft 461 kts 148°
2026-05-08 12:12 42.64493 17.55984 37031 ft 463 kts 148°
2026-05-08 12:13 42.59267 17.61090 37041 ft 463 kts 148°
2026-05-08 12:13 42.54031 17.66193 37041 ft 463 kts 148°
2026-05-08 12:14 42.48822 17.71260 37037 ft 463 kts 148°
2026-05-08 12:14 42.43578 17.76349 37031 ft 463 kts 148°
2026-05-08 12:15 42.38339 17.81423 37028 ft 463 kts 148°
2026-05-08 12:15 42.33091 17.86495 37038 ft 463 kts 148°
2026-05-08 12:16 42.27840 17.91559 37040 ft 465 kts 148°
2026-05-08 12:16 42.22564 17.96637 37035 ft 466 kts 148°
2026-05-08 12:17 42.17428 18.01571 37018 ft 465 kts 148°
2026-05-08 12:17 42.12157 18.06624 37019 ft 465 kts 148°
2026-05-08 12:18 42.06881 18.11671 37029 ft 464 kts 148°
2026-05-08 12:18 42.01614 18.16698 37025 ft 464 kts 148°
2026-05-08 12:19 41.96358 18.21705 37025 ft 464 kts 148°
2026-05-08 12:19 41.91116 18.26688 37029 ft 465 kts 148°
2026-05-08 12:20 41.85831 18.31702 37023 ft 466 kts 148°
2026-05-08 12:20 41.80493 18.36758 37015 ft 467 kts 148°
2026-05-08 12:21 41.75203 18.41743 37015 ft 467 kts 150°
2026-05-08 12:21 41.69448 18.45572 37022 ft 461 kts 161°
2026-05-08 12:22 41.63478 18.48772 37025 ft 462 kts 162°
2026-05-08 12:22 41.57496 18.51990 37012 ft 464 kts 161°
2026-05-08 12:23 41.51516 18.55256 37003 ft 465 kts 161°
2026-05-08 12:23 41.45563 18.58528 36991 ft 465 kts 161°
2026-05-08 12:24 41.39574 18.61816 37002 ft 465 kts 161°
2026-05-08 12:24 41.33578 18.65100 36994 ft 465 kts 161°
2026-05-08 12:25 41.27583 18.68376 36997 ft 465 kts 161°
2026-05-08 12:25 41.21634 18.71620 37005 ft 465 kts 161°
2026-05-08 12:26 41.15643 18.74880 36985 ft 465 kts 161°
2026-05-08 12:26 41.09658 18.78130 36986 ft 464 kts 161°
2026-05-08 12:27 41.03669 18.81376 36950 ft 464 kts 161°
2026-05-08 12:27 40.97711 18.84599 36978 ft 464 kts 161°
2026-05-08 12:28 40.91725 18.87830 36984 ft 464 kts 162°
2026-05-08 12:28 40.85756 18.90922 36975 ft 463 kts 162°
2026-05-08 12:29 40.79696 18.93989 36987 ft 464 kts 163°
2026-05-08 12:29 40.73682 18.97033 36959 ft 468 kts 162°
2026-05-08 12:30 40.67700 19.00080 36971 ft 467 kts 163°
2026-05-08 12:30 40.61651 19.03156 36969 ft 466 kts 162°
2026-05-08 12:31 40.55606 19.06222 36964 ft 465 kts 163°
2026-05-08 12:31 40.49551 19.09288 36963 ft 467 kts 163°
2026-05-08 12:32 40.43527 19.12332 36944 ft 467 kts 163°
2026-05-08 12:32 40.37449 19.15398 36964 ft 469 kts 163°
2026-05-08 12:33 40.31345 19.18469 36965 ft 471 kts 163°
2026-05-08 12:33 40.25220 19.21547 36959 ft 471 kts 163°
2026-05-08 12:34 40.19126 19.24606 36959 ft 471 kts 164°
2026-05-08 12:34 40.13001 19.27673 36941 ft 470 kts 165°
2026-05-08 12:35 40.06886 19.30729 36961 ft 470 kts 165°
2026-05-08 12:35 40.00759 19.33782 36980 ft 471 kts 165°
2026-05-08 12:36 39.94678 19.36806 36961 ft 475 kts 165°
2026-05-08 12:36 39.88503 19.39874 36957 ft 474 kts 165°
2026-05-08 12:37 39.82324 19.42940 36964 ft 474 kts 165°
2026-05-08 12:37 39.76154 19.45993 36979 ft 474 kts 165°
2026-05-08 12:38 39.69963 19.49047 36954 ft 476 kts 165°
2026-05-08 12:38 39.63819 19.52075 36965 ft 474 kts 166°
2026-05-08 12:39 39.57648 19.55111 36975 ft 473 kts 166°
2026-05-08 12:39 39.51486 19.58136 36978 ft 472 kts 166°
2026-05-08 12:40 39.45372 19.61132 36983 ft 472 kts 166°
2026-05-08 12:40 39.39228 19.64136 36989 ft 472 kts 167°
2026-05-08 12:41 39.36153 19.65638 36846 ft 476 kts 167°
2026-05-08 12:41 39.33034 19.67157 36578 ft 479 kts 167°
2026-05-08 12:41 39.29909 19.68681 36342 ft 478 kts 167°
2026-05-08 12:41 39.26805 19.70196 36077 ft 477 kts 167°
2026-05-08 12:42 39.23741 19.71690 35838 ft 476 kts 167°
2026-05-08 12:42 39.20640 19.73200 35599 ft 476 kts 167°
2026-05-08 12:42 39.17540 19.74706 35325 ft 476 kts 168°
2026-05-08 12:42 39.14437 19.76211 35086 ft 476 kts 168°
2026-05-08 12:43 39.11328 19.77717 34849 ft 478 kts 168°
2026-05-08 12:43 39.08205 19.79228 34612 ft 480 kts 168°
2026-05-08 12:43 39.05072 19.80742 34387 ft 481 kts 168°
2026-05-08 12:43 39.01940 19.82256 34161 ft 482 kts 168°
2026-05-08 12:44 38.98805 19.83770 33922 ft 483 kts 168°
2026-05-08 12:44 38.95661 19.85289 33293 ft 483 kts 169°
2026-05-08 12:44 38.92514 19.86809 32618 ft 481 kts 169°
2026-05-08 12:44 38.89410 19.88305 31848 ft 482 kts 169°
2026-05-08 12:45 38.86268 19.89817 31083 ft 483 kts 169°
2026-05-08 12:45 38.83116 19.91331 30294 ft 484 kts 170°
2026-05-08 12:45 38.79950 19.92849 29329 ft 487 kts 170°
2026-05-08 12:45 38.76772 19.94373 28390 ft 487 kts 169°
2026-05-08 12:46 38.73592 19.95898 27427 ft 487 kts 169°
2026-05-08 12:46 38.70418 19.97419 26428 ft 488 kts 169°
2026-05-08 12:46 38.67242 19.98939 25564 ft 486 kts 169°
2026-05-08 12:46 38.64204 20.00397 24907 ft 481 kts 169°
2026-05-08 12:47 38.61090 20.01890 24193 ft 476 kts 169°
2026-05-08 12:47 38.57993 20.03369 23510 ft 471 kts 169°
2026-05-08 12:47 38.54941 20.04824 22712 ft 466 kts 169°
2026-05-08 12:47 38.51917 20.06262 21954 ft 461 kts 169°
2026-05-08 12:48 38.48928 20.07684 21233 ft 455 kts 168°
2026-05-08 12:48 38.46011 20.09071 20532 ft 451 kts 168°
2026-05-08 12:48 38.43144 20.10705 19834 ft 460 kts 155°
2026-05-08 12:48 38.40698 20.13394 19320 ft 465 kts 143°
2026-05-08 12:49 38.38192 20.15871 18428 ft 447 kts 162°
2026-05-08 12:49 38.35311 20.16898 17586 ft 419 kts 185°
2026-05-08 12:49 38.32538 20.16440 16970 ft 390 kts 202°
2026-05-08 12:49 38.29906 20.15736 16006 ft 385 kts 195°
2026-05-08 12:50 38.27234 20.15403 14857 ft 385 kts 192°
2026-05-08 12:50 38.24577 20.15142 13740 ft 381 kts 192°
2026-05-08 12:50 38.21959 20.14853 12814 ft 371 kts 192°
2026-05-08 12:50 38.19451 20.14916 12467 ft 364 kts 174°
2026-05-08 12:51 38.17116 20.16124 12391 ft 363 kts 157°
2026-05-08 12:51 38.13332 20.20180 12194 ft 350 kts 135°
2026-05-08 12:51 38.12083 20.22788 12061 ft 340 kts 122°
2026-05-08 12:52 38.11102 20.25442 11918 ft 325 kts 120°
2026-05-08 12:52 38.09277 20.30674 11363 ft 321 kts 120°
2026-05-08 12:52 38.08372 20.33258 11089 ft 320 kts 120°
2026-05-08 12:53 38.07475 20.35799 10811 ft 318 kts 120°
2026-05-08 12:53 38.06566 20.38355 10533 ft 316 kts 121°
2026-05-08 12:53 38.05659 20.40893 10268 ft 315 kts 121°
2026-05-08 12:53 38.04753 20.43416 9995 ft 314 kts 121°
2026-05-08 12:54 38.03848 20.45933 9723 ft 312 kts 121°
2026-05-08 12:54 38.02950 20.48427 9415 ft 310 kts 121°
2026-05-08 12:54 38.02051 20.50920 9109 ft 309 kts 121°
2026-05-08 12:54 38.01161 20.53386 8890 ft 306 kts 121°
2026-05-08 12:55 38.00294 20.55793 8837 ft 293 kts 121°
2026-05-08 12:55 37.99479 20.58060 8746 ft 276 kts 121°
2026-05-08 12:55 37.98705 20.60212 8656 ft 261 kts 122°
2026-05-08 12:55 37.97978 20.62223 8482 ft 249 kts 122°
2026-05-08 12:56 37.97233 20.64260 7798 ft 262 kts 122°
2026-05-08 12:56 37.96449 20.66397 7068 ft 271 kts 121°
2026-05-08 12:56 37.95655 20.68578 6364 ft 273 kts 120°
2026-05-08 12:56 37.94862 20.70764 5606 ft 272 kts 120°
2026-05-08 12:57 37.94075 20.72936 4870 ft 271 kts 120°
2026-05-08 12:57 37.93290 20.75098 4120 ft 268 kts 120°
2026-05-08 12:57 37.92517 20.77221 3387 ft 263 kts 120°
2026-05-08 12:57 37.91770 20.79291 2969 ft 249 kts 121°
2026-05-08 12:58 37.91297 20.80568 2803 ft 233 kts 127°
2026-05-08 12:58 37.90260 20.81880 2619 ft 196 kts 160°
2026-05-08 12:58 37.89082 20.82538 2421 ft 177 kts 161°
2026-05-08 12:58 37.87986 20.83074 2218 ft 162 kts 165°
2026-05-08 12:59 37.86958 20.83509 2045 ft 147 kts 165°
2026-05-08 12:59 37.86047 20.83888 1907 ft 129 kts 165°
2026-05-08 12:59 37.85208 20.84238 1753 ft 124 kts 165°
2026-05-08 12:59 37.84385 20.84577 1600 ft 126 kts 163°
2026-05-08 13:00 37.83566 20.84944 1482 ft 126 kts 160°
2026-05-08 13:00 37.82770 20.85422 1328 ft 128 kts 155°
2026-05-08 13:00 37.81946 20.85827 1207 ft 126 kts 162°
2026-05-08 13:00 37.81095 20.86199 1059 ft 130 kts 162°
2026-05-08 13:01 37.80238 20.86560 890 ft 131 kts 163°
2026-05-08 13:01 37.79331 20.86888 671 ft 140 kts 165°
2026-05-08 13:01 37.78404 20.87211 525 ft 136 kts 165°
2026-05-08 13:01 37.77505 20.87542 341 ft 132 kts 166°
2026-05-08 13:02 37.76624 20.87863 189 ft 136 kts 165°
2026-05-08 13:02 37.75729 20.88195 36 ft 128 kts 166°
2026-05-08 13:02 37.74966 20.88473 17 ft 94 kts 163°
2026-05-08 13:02 37.74545 20.88629 20 ft 32 kts 162°
2026-05-08 13:03 37.74455 20.88664 21 ft 10 kts 163°
2026-05-08 13:03 37.74388 20.88706 19 ft 12 kts 124°
2026-05-08 13:03 37.74330 20.88722 19 ft 8 kts 244°
2026-05-08 13:03 37.74361 20.88681 19 ft 9 kts 357°
2026-05-08 13:04 37.74439 20.88668 20 ft 13 kts 345°
2026-05-08 13:04 37.74525 20.88638 21 ft 13 kts 343°
2026-05-08 13:04 37.74608 20.88607 20 ft 12 kts 343°
2026-05-08 13:04 37.74690 20.88576 20 ft 12 kts 343°
2026-05-08 13:05 37.74770 20.88546 20 ft 12 kts 343°
2026-05-08 13:05 37.74860 20.88513 18 ft 19 kts 343°
2026-05-08 13:05 37.75000 20.88464 18 ft 21 kts 351°
2026-05-08 13:05 37.75085 20.88506 19 ft 11 kts 36°
2026-05-08 13:06 37.75154 20.88523 20 ft 10 kts 343°
2026-05-08 13:06 37.75223 20.88497 19 ft 10 kts 344°
2026-05-08 13:06 37.75272 20.88499 19 ft 4 kts 39°
2026-05-08 13:06 37.75284 20.88536 19 ft 5 kts 73°
2026-05-08 13:07 37.75288 20.88554 21 ft 0 kts 73°
2026-05-08 13:07 37.75290 20.88562 20 ft 2 kts 73°
2026-05-08 13:07 37.75291 20.88567 19 ft 0 kts 73°
2026-05-08 13:09 37.75291 20.88566 19 ft 0 kts 73°